Flag for U.S.A. Weather past 2 weeks in Chattanooga, Tennessee, U.S.A.

Now
72 °F

Overcast.


Feels Like: 69 °F
Forecast: 72 / 86 °F
Wind: No wind

Location: Lovell Field

Current Time: Sep 3, 2014 at 4:33:24 AM

Latest Report: Sep 3, 2014 at 3:53 AM


Visibility: 10 mi

Pressure: 30.03 "Hg

Humidity: 91%

Dew point: 69 °F

Location of ChattanoogaLocation

Historic Weather in Chattanooga — Graph

°F

Chattanooga temperature yesterday

Maximum temperature yesterday: 93 °F (at 4:53 PM)
Minimum temperature yesterday: 73 °F (at 5:53 AM)
Average temperature yesterday: 82 °F

Past Weeks' High & Low Weather Summary

 TemperatureHumidityPressure
High94 °F (Aug 20, 4:53 PM)97% (Aug 31, 7:53 AM)30.16 "Hg (Aug 31, 7:53 AM)
Low67 °F (Aug 28, 6:53 AM)26% (Aug 27, 4:53 PM)29.84 "Hg (Aug 19, 5:53 PM)
Average80 °F70%30.03 "Hg
* Reported Aug 19 3:53 AM — Sep 3 3:03 AM, Chattanooga, Weather by CustomWeather, © 2014

Note: Actual official high and low records may vary slightly from our data, if they occured in-between our weather recording intervals... More about our weather records

Advertising

Chattanooga weather history for previous 24 hours

 ConditionsComfort  
Time TempWeatherWind HumidityBarometerVisibility
3:03 AM
Sep 3
71 °FHeavy rain. Fog.5 mph93%30.06 "Hg3 mi
3:01 AM71 °FRain. Fog.5 mph93%30.06 "Hg2 mi
1:53 AM72 °FLight rain. Mostly cloudy.6 mph87%30.03 "Hg10 mi
12:53 AM73 °FMostly cloudy.7 mph90%30.02 "Hg10 mi
12:03 AM74 °FHeavy rain. Fog.13 mph91%30.06 "Hg1 mi
11:53 PM
Sep 2
74 °FThunderstorms. Fog.7 mph88%30.04 "Hg3 mi
10:53 PM82 °FPartly cloudy.12 mph65%30.00 "Hg10 mi
9:53 PM85 °FPassing clouds.No wind57%29.97 "Hg10 mi
8:53 PM86 °FPartly sunny.3 mph53%29.96 "Hg10 mi
7:53 PM87 °FScattered clouds.7 mph50%29.95 "Hg10 mi
6:53 PM91 °FScattered clouds.12 mph42%29.92 "Hg10 mi
5:53 PM92 °FScattered clouds.10 mph41%29.93 "Hg10 mi
4:53 PM93 °FScattered clouds.10 mph40%29.95 "Hg10 mi
3:53 PM92 °FScattered clouds.13 mph41%29.98 "Hg10 mi
2:53 PM92 °FScattered clouds.10 mph44%30.01 "Hg10 mi
1:53 PM90 °FScattered clouds.8 mph50%30.04 "Hg10 mi
12:53 PM89 °FScattered clouds.7 mph53%30.06 "Hg10 mi
11:53 AM86 °FScattered clouds.5 mph59%30.07 "Hg10 mi
10:53 AM85 °FScattered clouds.9 mph61%30.08 "Hg10 mi
9:53 AM81 °FScattered clouds.5 mph69%30.09 "Hg10 mi
8:53 AM78 °FBroken clouds.No wind76%30.09 "Hg10 mi
7:53 AM74 °FPassing clouds.No wind85%30.07 "Hg10 mi
6:53 AM73 °FPassing clouds.No wind88%30.07 "Hg10 mi
5:53 AM73 °FPartly cloudy.No wind88%30.06 "Hg10 mi
4:53 AM74 °FClear.No wind85%30.05 "Hg10 mi
Weather by CustomWeather, © 2014

See weather overviewHow to use our weather pages